Wind_Speed
6 8 9 10 10 10 9 9 9 8 8 9 10 10 11 10 11 12 12 11 11 11 11 11 11 9 9 8 8 7 6 6 6 5 5 4 4 5 5 6 6 7 8 9
7 8 8 10 10 10 9 9 9 8 9 9 10 11 11 10 10 12 12 11 10 11 11 10 10 9 9 8 7 7 6 6 6 6 5 5 5 5 6 6 7 8 9 9
7 8 9 10 10 11 10 9 9 9 9 9 9 10 11 11 11 12 11 11 10 10 9 9 9 9 9 7 7 7 7 7 6 6 6 6 6 6 6 6 7 8 9 9
8 8 9 10 10 10 10 9 9 9 9 9 9 9 10 11 11 11 11 11 10 10 10 9 9 9 9 8 7 7 7 6 6 6 6 6 5 5 5 6 7 8 9 9
8 8 9 9 9 9 9 9 8 8 9 9 9 9 10 11 11 11 11 11 11 10 10 9 9 9 9 8 7 7 6 5 5 5 5 5 5 5 5 6 7 8 8 9
8 8 9 9 9 9 9 8 9 8 8 8 9 10 10 10 11 11 11 11 11 11 11 10 9 9 9 9 8 7 6 6 5 5 4 4 4 5 5 6 7 7 8 9
7 8 9 9 10 10 10 9 9 8 9 9 9 9 10 10 11 11 11 11 11 12 11 11 10 9 9 9 8 7 6 6 5 4 4 4 4 4 5 6 7 7 8 9
8 8 8 9 9 10 10 10 9 9 9 9 9 9 9 10 11 11 11 11 11 11 11 11 10 10 9 9 8 7 6 6 5 5 5 5 4 4 5 5 6 7 8 9
8 8 7 8 9 9 10 10 9 9 8 8 9 8 8 10 11 11 11 11 11 11 11 10 10 10 10 9 8 7 6 6 5 5 5 4 4 4 4 5 6 7 8 9
8 8 7 7 8 9 9 9 9 9 8 8 8 8 8 9 10 11 11 11 11 11 11 11 10 10 10 9 8 7 7 6 5 5 5 4 4 4 5 6 7 8 9 9
7 8 7 7 8 9 9 10 10 9 8 8 8 8 8 9 11 11 11 12 11 11 11 11 11 11 10 9 9 8 7 7 6 5 5 5 5 5 5 6 7 8 8 9
7 8 7 7 8 9 9 10 10 9 8 8 8 8 9 9 11 11 11 11 11 11 12 12 12 12 11 10 9 9 8 7 7 6 6 6 6 6 6 6 7 8 9 10
8 8 8 7 8 9 9 10 10 10 9 8 7 8 8 10 11 11 11 10 11 11 12 12 12 12 12 11 10 9 9 8 8 8 8 7 7 7 7 7 8 9 10 11
10 9 9 9 9 9 10 10 10 10 9 9 8 9 10 10 11 11 11 10 10 11 11 11 11 11 11 11 11 10 9 9 8 8 8 8 8 8 8 9 9 10 10 11
12 10 11 11 10 10 10 10 10 10 10 9 9 10 10 11 11 12 12 11 11 11 12 12 12 12 12 12 11 11 10 10 9 9 9 9 9 9 9 10 10 10 11 12
13 12 13 12 12 12 12 11 11 11 11 10 11 11 12 12 12 12 12 12 12 12 12 13 13 12 12 12 12 12 11 11 10 10 10 10 10 10 10 10 11 12 13 13
15 14 14 15 14 13 13 12 12 12 12 12 12 12 13 13 13 13 13 13 12 12 12 13 13 13 13 13 13 12 12 11 11 11 11 11 11 11 12 12 12 13 14 15
17 16 16 17 16 15 13 13 13 13 13 13 13 13 13 14 14 14 14 14 13 13 13 13 14 14 13 13 13 12 12 13 12 12 12 13 13 14 14 15 15 16 16 17
18 18 18 18 18 16 15 14 15 14 14 13 13 13 13 14 14 14 14 14 14 14 14 14 14 15 14 14 13 13 13 14 14 14 15 15 15 16 17 17 18 18 19 19
19 19 19 19 19 18 16 17 16 16 15 15 15 14 14 15 14 14 15 15 15 15 15 15 15 15 15 15 15 15 15 15 15 16 16 17 17 18 18 19 20 20 20 21
20 21 20 20 20 18 18 18 18 17 16 16 16 15 15 15 15 15 15 15 15 15 15 15 16 16 16 16 16 16 17 17 17 18 18 19 19 20 20 21 22 22 22 23
22 23 22 21 21 18 18 19 19 18 18 18 18 17 17 17 17 17 17 17 17 16 16 16 16 17 17 17 18 18 18 19 19 19 20 21 22 22 23 24 24 24 24 25
24 24 23 23 22 20 20 20 20 20 20 20 20 19 18 18 18 19 19 18 18 18 18 18 18 18 19 19 19 20 20 20 21 21 22 23 24 25 25 26 26 26 26 27
25 25 24 23 23 22 22 22 22 22 22 21 21 21 21 20 20 20 19 19 19 19 19 19 19 20 20 20 21 22 22 23 23 24 25 26 27 27 27 27 28 28 28 29
27 26 26 25 24 24 24 24 24 24 24 23 23 23 23 22 22 21 21 21 21 21 21 21 21 22 22 23 23 24 25 25 26 27 27 28 29 29 30 30 30 30 31 31
27 27 27 26 26 26 26 26 26 25 25 25 25 24 24 24 24 23 23 23 23 23 23 24 24 24 25 25 26 26 27 27 28 29 29 30 31 31 32 32 32 32 33 33
Wind_Direction
185 186 189 193 191 189 189 188 188 190 192 191 192 195 195 197 197 195 195 195 196 198 202 205 207 211 217 219 218 220 223 233 243 249 257 271 285 296 305 311 315 320 325 328
181 187 189 192 191 190 188 188 191 191 191 190 194 196 195 196 197 195 196 197 201 204 204 204 204 209 212 213 216 221 227 238 246 250 259 269 278 289 297 307 318 323 324 325
176 180 182 186 189 188 188 188 190 192 188 188 195 199 200 202 201 199 201 204 207 207 207 206 206 212 217 217 222 231 236 243 250 252 259 266 275 287 299 311 321 324 325 326
178 179 180 183 186 186 187 188 189 190 191 194 197 201 205 205 205 204 205 209 208 207 208 209 211 217 221 225 227 231 236 241 247 251 257 265 274 291 308 319 324 326 327 330
181 183 183 187 189 186 188 189 190 192 199 203 205 208 212 212 210 210 211 211 210 209 212 215 214 219 222 224 224 227 230 236 242 250 257 265 276 297 311 318 324 328 331 335
187 189 191 193 195 191 192 190 191 197 205 209 211 213 217 218 215 213 214 215 213 213 215 215 216 218 219 221 223 226 232 235 241 250 258 271 285 298 311 319 326 333 337 339
192 196 194 199 200 198 196 194 198 206 214 219 216 216 215 217 215 212 213 213 214 215 215 217 217 219 222 220 224 228 230 235 245 256 265 277 288 300 310 319 332 339 343 345
198 196 197 198 201 204 202 200 204 211 218 222 221 221 218 215 213 210 210 212 213 214 216 216 216 220 217 217 221 224 231 237 243 252 262 272 284 299 311 322 337 342 345 347
202 199 204 203 200 203 204 204 206 208 216 224 226 222 220 214 212 212 212 212 213 214 215 216 217 218 214 216 220 224 234 241 246 252 260 268 278 296 313 325 337 341 342 345
196 196 199 198 198 203 204 205 206 207 216 223 225 224 221 210 207 207 210 212 213 214 215 218 218 218 213 215 220 226 234 243 249 254 257 262 273 288 307 318 328 334 338 340
206 201 199 200 203 206 205 205 208 209 213 218 221 222 215 206 203 205 207 209 213 214 218 219 218 218 217 220 225 231 238 245 251 255 258 264 272 286 300 311 322 328 332 337
208 203 201 204 209 211 212 211 212 215 220 220 222 220 211 205 204 207 207 210 214 218 220 218 220 221 223 227 232 236 240 245 253 259 262 266 271 282 295 307 317 322 325 328
212 210 211 214 215 213 213 215 217 220 224 223 223 220 212 210 209 212 214 215 219 221 220 219 221 223 225 228 232 235 240 247 253 258 262 268 274 283 292 300 310 316 320 323
220 216 214 217 220 216 216 218 220 221 224 225 225 224 220 218 220 221 219 219 222 223 222 222 224 226 229 230 231 239 243 250 255 259 263 267 274 283 290 297 304 310 316 319
225 223 222 223 226 223 222 220 220 221 221 222 225 230 229 227 228 227 225 224 224 226 228 228 229 231 234 235 237 241 246 252 256 261 264 267 272 280 287 294 300 306 312 317
228 229 229 230 232 229 227 223 223 225 226 228 230 230 229 231 231 229 229 228 228 230 233 234 234 235 237 239 241 245 248 252 256 260 264 268 273 279 286 292 296 302 308 311
231 231 232 233 235 235 230 228 230 230 230 230 230 229 230 232 233 230 230 232 234 235 237 239 240 239 242 243 244 247 248 252 257 262 265 270 276 281 286 291 295 299 303 305
232 232 234 235 237 238 235 233 233 233 232 231 229 229 231 232 233 232 234 237 238 237 239 241 242 242 243 244 246 250 254 257 260 265 270 275 279 283 287 291 295 298 300 301
232 234 236 237 239 240 238 237 236 235 233 235 233 232 234 237 237 237 238 238 239 240 242 244 245 245 246 247 251 255 259 261 263 267 272 276 279 283 287 290 293 296 297 299
233 235 237 237 241 241 238 239 240 238 236 237 237 236 238 238 240 241 241 241 241 243 245 247 248 246 247 250 254 258 263 266 267 271 275 278 281 283 286 289 291 293 294 296
235 237 238 239 241 241 239 239 240 240 239 239 239 239 241 242 242 242 243 245 246 248 250 251 252 252 253 255 257 261 266 268 270 274 278 281 284 285 287 290 291 292 292 294
237 239 239 241 242 242 242 240 239 239 239 239 240 241 242 243 243 245 247 249 251 253 254 254 254 255 256 258 261 265 268 270 272 276 279 282 284 285 287 289 291 291 291 293
239 239 241 242 243 243 242 241 239 240 241 241 242 244 245 246 247 247 250 252 254 255 254 255 257 258 259 261 264 268 270 272 274 277 279 282 283 285 287 289 289 290 291 292
241 241 242 243 244 245 243 243 242 242 243 244 244 245 247 249 250 251 252 254 255 255 256 257 259 261 263 264 267 269 271 273 274 277 280 281 282 284 286 287 288 289 290 291
242 242 243 244 245 246 245 244 244 245 246 247 248 248 249 249 252 253 254 255 256 257 258 259 261 263 266 268 270 271 273 274 276 278 280 281 282 284 285 286 287 288 289 290
244 244 244 245 246 246 246 244 244 245 247 248 249 249 249 250 252 253 255 256 257 259 260 261 263 265 268 269 271 273 274 275 277 279 280 282 283 284 285 286 287 288 288 289
Height
5837 5840 5841 5843 5845 5847 5849 5851 5852 5854 5855 5857 5858 5860 5862 5863 5865 5867 5868 5870 5871 5873 5875 5876 5878 5879 5880 5881 5882 5883 5884 5885 5885 5885 5885 5885 5885 5884 5883 5882 5881 5880 5878 5876
5837 5839 5841 5842 5844 5846 5848 5850 5852 5853 5854 5856 5858 5860 5861 5863 5864 5866 5868 5869 5870 5872 5874 5876 5877 5878 5879 5880 5881 5882 5883 5884 5884 5884 5884 5884 5884 5883 5882 5881 5880 5878 5877 5875
5836 5839 5839 5841 5843 5845 5847 5850 5851 5853 5854 5856 5858 5860 5861 5862 5864 5865 5867 5869 5870 5871 5873 5874 5876 5877 5878 5879 5880 5881 5882 5882 5883 5883 5883 5883 5883 5882 5881 5880 5879 5877 5875 5874
5835 5837 5839 5841 5843 5845 5847 5849 5851 5853 5854 5856 5858 5860 5861 5861 5863 5865 5866 5868 5869 5870 5872 5873 5875 5876 5877 5878 5879 5880 5880 5881 5882 5882 5882 5882 5881 5881 5880 5879 5877 5876 5874 5872
5836 5837 5838 5840 5842 5844 5846 5848 5850 5852 5854 5856 5857 5859 5860 5860 5862 5864 5865 5867 5868 5869 5871 5872 5874 5875 5876 5877 5878 5879 5880 5880 5881 5881 5881 5880 5880 5879 5879 5878 5876 5875 5873 5871
5835 5836 5838 5839 5841 5843 5845 5848 5849 5851 5853 5855 5856 5858 5859 5860 5861 5863 5864 5865 5867 5868 5870 5871 5872 5874 5875 5876 5877 5878 5879 5879 5880 5880 5879 5879 5879 5878 5877 5876 5875 5874 5872 5870
5835 5836 5837 5838 5840 5842 5844 5847 5849 5851 5852 5854 5855 5856 5858 5858 5860 5861 5862 5864 5866 5867 5869 5870 5871 5873 5874 5875 5877 5877 5878 5878 5878 5878 5878 5878 5877 5877 5876 5875 5874 5872 5871 5869
5834 5836 5837 5838 5840 5841 5843 5846 5849 5851 5851 5852 5853 5854 5857 5857 5858 5859 5861 5862 5864 5866 5867 5869 5870 5871 5873 5874 5875 5876 5876 5877 5877 5877 5877 5876 5876 5875 5875 5874 5873 5871 5869 5867
5834 5836 5836 5837 5838 5840 5842 5844 5847 5849 5850 5851 5852 5853 5854 5855 5856 5858 5859 5861 5863 5864 5866 5867 5869 5870 5871 5873 5874 5875 5875 5876 5876 5876 5875 5875 5875 5874 5873 5872 5871 5870 5868 5866
5833 5835 5836 5836 5838 5840 5842 5843 5845 5847 5848 5850 5851 5852 5853 5853 5855 5856 5858 5859 5861 5863 5864 5866 5867 5869 5870 5871 5872 5873 5874 5874 5874 5874 5874 5874 5873 5873 5872 5871 5870 5868 5867 5865
5831 5834 5835 5836 5837 5838 5840 5842 5843 5845 5847 5849 5850 5853 5851 5852 5853 5855 5856 5858 5860 5861 5863 5864 5866 5867 5868 5869 5870 5871 5872 5872 5872 5873 5872 5872 5872 5871 5870 5869 5868 5867 5865 5864
5830 5832 5834 5835 5836 5837 5839 5840 5842 5844 5845 5846 5848 5852 5849 5850 5852 5853 5855 5856 5858 5859 5861 5862 5864 5865 5866 5867 5868 5869 5870 5870 5871 5871 5871 5870 5870 5869 5868 5867 5866 5865 5864 5862
5830 5831 5833 5834 5837 5837 5837 5838 5840 5842 5843 5845 5846 5850 5848 5849 5850 5851 5853 5854 5856 5857 5859 5860 5862 5863 5864 5865 5866 5867 5868 5868 5868 5869 5868 5868 5868 5867 5866 5866 5864 5863 5862 5860
5828 5830 5832 5834 5834 5834 5836 5837 5838 5840 5841 5843 5844 5845 5846 5847 5848 5849 5851 5852 5854 5855 5857 5858 5859 5861 5862 5863 5864 5865 5865 5866 5866 5866 5866 5866 5866 5865 5864 5863 5862 5861 5859 5858
5826 5828 5829 5831 5832 5833 5834 5835 5836 5838 5840 5841 5842 5843 5844 5845 5846 5847 5849 5850 5852 5853 5854 5856 5857 5858 5860 5860 5861 5862 5863 5863 5863 5864 5863 5863 5863 5862 5862 5861 5860 5858 5857 5855
5823 5825 5827 5828 5829 5830 5832 5833 5835 5836 5837 5838 5839 5840 5841 5842 5843 5845 5846 5848 5849 5850 5852 5853 5854 5855 5856 5857 5858 5859 5860 5860 5860 5860 5860 5860 5860 5860 5859 5858 5857 5855 5854 5852
5820 5822 5824 5826 5827 5828 5830 5831 5832 5834 5835 5836 5837 5839 5838 5839 5841 5842 5844 5845 5846 5848 5849 5850 5851 5852 5853 5854 5855 5856 5856 5857 5857 5857 5857 5857 5857 5856 5855 5854 5853 5852 5850 5848
5817 5819 5820 5822 5824 5825 5829 5828 5829 5830 5832 5832 5834 5835 5835 5837 5838 5839 5841 5842 5843 5844 5846 5847 5848 5849 5849 5850 5851 5852 5852 5853 5853 5853 5853 5853 5853 5852 5851 5850 5849 5847 5846 5844
5813 5815 5817 5818 5820 5822 5824 5825 5826 5827 5829 5829 5830 5831 5832 5833 5835 5836 5838 5839 5840 5841 5842 5843 5844 5845 5846 5847 5847 5848 5848 5849 5849 5849 5849 5849 5848 5847 5846 5845 5844 5842 5840 5838
5808 5810 5813 5814 5816 5818 5821 5821 5822 5824 5825 5826 5827 5828 5829 5830 5832 5834 5834 5835 5836 5837 5838 5839 5840 5841 5842 5842 5843 5843 5844 5844 5844 5844 5844 5844 5843 5842 5841 5840 5838 5836 5835 5833
5803 5805 5807 5809 5810 5813 5815 5816 5818 5821 5822 5822 5823 5824 5825 5827 5828 5830 5830 5831 5832 5834 5834 5835 5836 5837 5837 5838 5838 5839 5839 5839 5839 5839 5839 5838 5837 5836 5835 5834 5832 5830 5829 5827
5797 5800 5802 5804 5805 5810 5810 5811 5813 5815 5816 5817 5818 5820 5821 5822 5823 5825 5826 5827 5828 5829 5830 5831 5831 5832 5833 5833 5833 5834 5834 5834 5833 5833 5833 5832 5831 5830 5829 5827 5826 5824 5822 5820
5792 5795 5796 5799 5802 5803 5804 5806 5807 5809 5811 5812 5814 5815 5816 5818 5819 5820 5821 5822 5823 5824 5825 5826 5826 5827 5827 5828 5828 5828 5828 5827 5827 5827 5826 5825 5824 5823 5822 5820 5818 5817 5815 5813
5786 5788 5790 5792 5795 5797 5798 5799 5801 5803 5805 5807 5808 5810 5811 5813 5814 5815 5816 5817 5818 5819 5819 5820 5821 5821 5821 5822 5822 5822 5821 5821 5821 5820 5819 5818 5817 5816 5814 5813 5811 5809 5807 5805
5779 5781 5783 5785 5788 5790 5791 5793 5795 5797 5799 5800 5802 5804 5805 5807 5808 5809 5810 5811 5812 5813 5813 5814 5815 5815 5815 5815 5815 5815 5815 5814 5813 5813 5812 5811 5809 5808 5806 5804 5803 5801 5799 5796
5772 5774 5776 5778 5780 5782 5784 5786 5788 5790 5792 5793 5795 5797 5798 5800 5801 5802 5803 5804 5805 5806 5807 5807 5808 5808 5808 5808 5808 5807 5807 5806 5805 5804 5803 5802 5800 5799 5797 5796 5794 5792 5790 5787